Regional Weather Roundup
Issued by NWS Portland, ME

Home | Current Version | Previous Version | Text Only | Print | Product List | Glossary On
Versions: 1 2 3 4 5 6 7 8 9 10 11 12 13 14 15 16 17 18 19 20 21 22 23 24 25 26 27 28 29 30 31 32 33 34 35 36 37 38 39 40 41 42 43 44 45 46 47 48 49 50
000
ASUS41 KGYX 041310
RWRGYX
WEATHER ROUNDUP FOR MAINE AND NEW HAMPSHIRE
NATIONAL WEATHER SERVICE GRAY ME
800 AM EST WED MAR 04 2015

MEZ002-005-006-010-012-015-018-020-021-024-026-027-029-041400-
MAINE

CITY           SKY/WX    TMP DP  RH WIND       PRES   REMARKS
PORTLAND       CLOUDY    33  29  85 SW5       29.66R
SANFORD        CLOUDY    28  25  86 CALM      29.68R
BAR HARBOR     CLOUDY    36  36 100 SW5       29.62R
WISCASSET      CLOUDY    32  30  92 CALM      29.67R
ROCKLAND       CLOUDY    34  32  93 W9        29.65R
FRYEBURG       CLOUDY    26  23  88 E5        29.61R
LEWISTONAUBURN CLOUDY    27  25  93 CALM      29.64R
AUGUSTA        CLOUDY    29  26  89 CALM      29.65R
WATERVILLE     CLOUDY    28  23  80 SW7       29.61R
BANGOR         CLOUDY    32  28  85 SW6       29.61R
GREENVILLE       N/A     26  22  84 CALM      29.49R
MILLINOCKET    CLOUDY    28  24  85 VRB3      29.56R
HOULTON        CLOUDY    28  24  85 SW7       29.50R
PRESQUE ISLE   CLOUDY    28  21  74 SW8       29.49R
FRENCHVILLE    CLOUDY    19  16  88 SW5       29.44S
CARIBOU        CLOUDY    26  22  84 SW8       29.47R
$$

NHZ002-005-008-009-011-012-014-041400-
NEW HAMPSHIRE

CITY           SKY/WX    TMP DP  RH WIND       PRES   REMARKS
PORTSMOUTH     CLOUDY    34  31  90 SW3       29.68R
ROCHESTER      CLOUDY    31  28  89 S3        29.67R
NASHUA         CLOUDY    36  35  96 CALM      29.71R
MANCHESTER     CLOUDY    37  33  85 W7        29.68R
CONCORD        CLOUDY    28  25  88 E5        29.68R
LACONIA        CLOUDY    34  27  75 SW9       29.63R
PLYMOUTH       CLOUDY    29  29 100 CALM      29.64R
BERLIN         LGT SNOW  30  25  81 CALM      29.61R
WHITEFIELD     CLOUDY    32  25  75 SW6       29.64R
JAFFREY        CLOUDY    36  29  75 W9G17     29.67R
KEENE          CLOUDY    37  30  75 CALM      29.71R
LEBANON        FLURRIES  37  27  67 W13G20    29.67R
MT WASHINGTON  SNOW      10  10 100 NW63G72     N/A  VSB 0   WCI -19
$$

VTZ005-007-008-041400-
VERMONT

CITY           SKY/WX    TMP DP  RH WIND       PRES   REMARKS
ST JOHNSBURY     N/A     28  25  88 MISG      29.64R
MONTPELIER     CLOUDY    31  26  82 W6        29.68R
BURLINGTON     CLOUDY    35  24  64 W3        29.69R
$$

MAZ007-012-024-CTZ003-RIZ002-NYZ038-NYZ072-041400-
SOUTHERN NEW ENGLAND AND NY

CITY           SKY/WX    TMP DP  RH WIND       PRES   REMARKS
BOSTON         CLOUDY    37  34  89 SW12      29.73R
WORCESTER      CLOUDY    35  31  85 W21G26    29.68R
NANTUCKET      LGT RAIN  36  34  92 W16       29.76S FOG
PROVIDENCE     LGT RAIN  37  33  85 SW6       29.76R
HARTFORD       CLOUDY    36  33  89 S5        29.75R
ALBANY         CLOUDY    36  27  69 W14       29.79R
NEW YORK CITY  LGT RAIN  37  34  89 CALM      29.83R FOG
$$

ANZ081-ANZ082-ANZ150-NHZ014-MEZ023>029-041400-
COASTAL MARINE OBSERVATIONS

STATION/POSITION TIME  TEMP    WIND        PRES    WAVE
                       AIR SEA DIR/SP/G            HT/PER
                 (UTC) (F)     (DEG/KT/KT) (MB)    (FT/S)
MOUNT DESERT ROC 1300   36                 1002.7R
MATINICUS ROCK   1300   36     270/ 22/ 24 1003.9R
WELLS            1200   31     250/  4/  6 1003.9R
ISLE OF SHOALS   1300   36     230/ 14/ 15 1004.9R
JEFFREYS LEDGE   1221      40                N/A     6/ 8
CASHES LEDGE BUO 1250   41 40              1003.2R
$$

.............KEY..............
   WCI - WIND CHILL
   TC  - TEMPERATURE IN CELSIUS
   VSB - VISIBILITY IN MILES
   HX  - HEAT INDEX
   FAIR- INDICATES FEW OR NO CLOUDS BELOW 12,000 FT, WITH NO
         SIGNIFICANT WEATHER AND/OR OBSTRUCTIONS TO VISIBILITY.





USA.gov is the U.S. government's official web portal to all federal, state and local government web resources and services.